COSMOS 2251 DEB, 34120

Orbit data source: Space-Track

COSMOS 2251 DEB, 34120 is space debris in LEO originally from a launch on Wed, 16 Jun 1993 UTC launched from the Plesetsk Missile And Space Complex (PKMTR). The debris from Iridium 33, an American commercial communications satellite, has been tracked extensively since its accidental collision with the defunct Russian satellite Cosmos 2251 in 2009. This event, occurring at high speed in low Earth orbit (LEO), generated thousands of pieces of space debris, significantly increasing the risk of further collisions. The Iridium 33 debris cloud has impacted space traffic management and orbital debris mitigation strategies, making it a subject of ongoing study in space situational awareness.

Loading next visibility...
Identifier
34120, 1993-036KR
Orbit
LEO
Country
Flag of CISCIS
Related business
Manufacturer
Unknown
Mission
Spacecraft
Bus & Motor
Unknown
Mass
Unknown
Launch date (UTC)
1993-06-16 (33 years ago)
Launch vehicle
Unknown
Launch site
Plesetsk Missile And Space Complex (PKMTR)
Object type
Payload
Rocket body
Debris
Shape & HBR
Unknown shape, 0.2 m
Radar Cross Section
Small (<0.1 m²)

Expand to show TLE details & history
Last TLE update: 10 hours ago

TLE from 10 hours ago
0 COSMOS 2251 DEB
1 34120U 93036KR  26063.11245631  .00000578  00000-0  36217-3 0  9993
2 34120  73.9898  75.2515 0184602 245.5185 191.1283 13.98778841871188
Epoch: 2026-03-04T02:41Z
TLE epoch observation values (Epoch: 2026-03-04T02:41:56.225Z)
Latitude
69.10008°
Longitude
-78.73513°
Altitude
1,041.522 km
Speed
7.271 km/s
True Right ascension
08h 14m 31s
True Declination
68° 59' 23"
Sunlit
Object was in daylight at epoch
Visualization orbit readout
Latitude
Unknown
Longitude
Unknown
Altitude
Unknown
Speed
Unknown
Apparent Right ascension
Unknown
Apparent Declination
Unknown
Sunlit
N/A
Visualization observer readout
Local Sidereal Time
16:34:16
Azimuth
Unknown
Elevation
Unknown
Doppler factor
Unknown
Orbital elements
Apogee altitude
1,029.971 km
Perigee altitude
761.419 km
Semi-major axis
7,273.832 km
Eccentricity
0.01846
Inclination
73.9898°
RAAN
75.2515°
Arg. of periapsis
245.5185°
True anomaly
190.72907°
Mean anomaly
191.1283°
Eccentric anomaly
190.92779°
Mean motion
3.49863 °/min
Orbital period
102.9 mins
BSTAR
0.00036217
Loading maneuver chart data...
Computing Atmospheric mass density...

Documentation

Showing up to 5 results
|